WAT3552 ESGG-LYBE

Flight info

Callsign WAT3552
Flight time N/A
Altitude 35000
Route TOPLA DCT POKEN DCT XELOL DCT ADVAB L617 XIDNA DCT NUDRO DCT BILNA DCT PATAK DCT TPS DCT PARAK DCT TISAK
Aircraft B738/M-SDE2E3FGHIRWXY/LB1

Departure

Time N/A
Airport Göteborg Landvetter Airport (ESGG)

Arrival

Time 2026-04-27 18:35
Airport Belgrade Nikola Tesla Airport (LYBE)
Time Latitude Longitude Altitude Speed Heading
2026-04-27 18:28 45.96170 20.13003 18163 ft 326 kts 176°
2026-04-27 18:29 45.78446 20.16237 15627 ft 316 kts 176°
2026-04-27 18:29 45.61261 20.19360 13221 ft 307 kts 177°
2026-04-27 18:29 45.44773 20.22249 10847 ft 298 kts 177°
2026-04-27 18:29 45.39853 20.22764 10177 ft 284 kts 199°
2026-04-27 18:30 45.38031 20.21842 9973 ft 275 kts 207°
2026-04-27 18:30 45.33734 20.19506 9268 ft 274 kts 205°
2026-04-27 18:30 45.29111 20.17401 8583 ft 271 kts 201°
2026-04-27 18:30 45.14845 20.11488 6498 ft 263 kts 199°
2026-04-27 18:31 45.04460 20.07345 4959 ft 255 kts 197°
2026-04-27 18:31 45.01627 20.06283 4635 ft 249 kts 195°
2026-04-27 18:31 44.96780 20.04581 4082 ft 222 kts 181°
2026-04-27 18:31 44.94063 20.06175 3829 ft 205 kts 151°
2026-04-27 18:32 44.91752 20.08308 3410 ft 196 kts 123°
2026-04-27 18:32 44.90880 20.10714 3219 ft 186 kts 121°
2026-04-27 18:32 44.90169 20.12256 3069 ft 192 kts 122°
2026-04-27 18:32 44.89166 20.14457 2744 ft 190 kts 122°
2026-04-27 18:33 44.87784 20.17558 2222 ft 182 kts 121°
2026-04-27 18:33 44.86517 20.20405 1731 ft 161 kts 121°
2026-04-27 18:33 44.85836 20.21930 1528 ft 149 kts 121°
2026-04-27 18:33 44.85299 20.23137 1326 ft 141 kts 121°
2026-04-27 18:34 44.84775 20.24317 1114 ft 144 kts 121°
2026-04-27 18:34 44.84242 20.25516 942 ft 145 kts 121°
2026-04-27 18:34 44.83706 20.26723 745 ft 146 kts 121°
2026-04-27 18:34 44.83167 20.27930 552 ft 145 kts 121°
2026-04-27 18:35 44.82634 20.29129 358 ft 143 kts 121°
2026-04-27 18:35 44.82142 20.30238 306 ft 120 kts 119°
2026-04-27 18:35 44.81816 20.30975 309 ft 58 kts 122°
2026-04-27 18:35 44.81686 20.31234 304 ft 20 kts 135°
2026-04-27 18:36 44.81570 20.31337 304 ft 19 kts 153°
2026-04-27 18:36 44.81452 20.31429 305 ft 19 kts 150°
2026-04-27 18:36 44.81337 20.31443 305 ft 17 kts 221°
2026-04-27 18:36 44.81338 20.31344 305 ft 10 kts 301°
2026-04-27 18:37 44.81380 20.31249 305 ft 14 kts 302°
2026-04-27 18:37 44.81442 20.31109 304 ft 20 kts 302°
2026-04-27 18:37 44.81523 20.30926 305 ft 24 kts 302°
2026-04-27 18:37 44.82010 20.29829 306 ft 21 kts 302°
2026-04-27 18:38 44.82100 20.29533 309 ft 20 kts 225°
2026-04-27 18:38 44.82023 20.29453 306 ft 5 kts 248°
2026-04-27 18:38 44.82041 20.29407 306 ft 5 kts 305°
2026-04-27 18:38 44.82057 20.29372 306 ft 0 kts 301°